EW8320 Weather Reports


Display with metric or nautical units.
time (UTC)temp
F
wind
direction
speed
MPH
gust
MPH
rain 1hr
in
rain 24hr
in
rain mn
in
humidity
%
barometer
mb
20260507043130 60 67 0.0 0.0 0.00 0.00 0.00 42 1019.4
20260507042131 59 44 0.0 0.0 0.00 0.00 0.00 44 1019.4
20260507041129 60 47 0.0 0.0 0.00 0.00 0.00 42 1019.3
20260507040131 58 51 0.0 0.0 0.00 0.00 0.00 49 1019.3
20260507035132 58 58 0.0 0.0 0.00 0.00 0.00 48 1019.3
20260507034231 61 54 0.0 0.0 0.00 0.00 0.00 40 1019.2
20260507033329 61 283 0.0 0.0 0.00 0.00 0.00 41 1019.0
20260507032429 59 252 0.0 0.0 0.00 0.00 0.00 46 1019.2
20260507032330 59 247 0.0 0.0 0.00 0.00 0.00 46 1019.2
20260507031332 60 247 0.0 0.0 0.00 0.00 0.00 44 1019.1
20260507030430 62 337 0.0 0.0 0.00 0.00 0.00 38 1019.0
20260507025430 64 299 0.0 0.0 0.00 0.00 0.00 36 1019.1
20260507024432 63 50 0.0 0.0 0.00 0.00 0.00 39 1018.9
20260507023530 63 32 0.0 0.0 0.00 0.00 0.00 41 1019.0
20260507022629 63 337 0.0 0.0 0.00 0.00 0.00 42 1019.0
20260507021632 64 22 0.0 0.0 0.00 0.00 0.00 44 1018.9
20260507020632 64 45 0.0 0.0 0.00 0.00 0.00 46 1019.1
20260507015730 65 65 0.0 0.0 0.00 0.00 0.00 44 1018.9
20260507014731 65 314 0.0 0.0 0.00 0.00 0.00 45 1019.0
20260507013730 66 8 0.0 0.0 0.00 0.00 0.00 46 1018.8
20260507012730 66 59 0.0 0.0 0.00 0.00 0.00 44 1018.8
20260507010733 66 90 9.0 23.0 0.00 0.00 0.00 45 1018.2
20260507005732 67 104 12.0 21.0 0.00 0.00 0.00 45 1018.3
20260507004730 67 95 0.0 0.0 0.00 0.00 0.00 43 1018.2
20260507003731 68 94 0.0 0.0 0.00 0.00 0.00 40 1018.2
20260507002731 68 96 0.0 0.0 0.00 0.00 0.00 40 1018.2
20260507001731 68 85 10.0 22.0 0.00 0.00 0.00 40 1017.9
20260507000830 69 97 0.0 4.0 0.00 0.00 0.00 38 1017.9
20260506235929 70 69 0.0 0.0 0.00 0.00 0.00 37 1017.8
20260506234933 71 93 0.0 0.0 0.00 0.00 0.00 37 1017.7
20260506234030 71 132 0.0 0.0 0.00 0.00 0.00 35 1017.8
20260506233032 71 103 0.0 0.0 0.00 0.00 0.00 34 1017.7
20260506231130 72 97 0.0 0.0 0.00 0.00 0.00 34 1017.9
20260506225132 71 112 0.0 0.0 0.00 0.00 0.00 34 1018.1
20260506223231 72 283 0.0 0.0 0.00 0.00 0.00 34 1018.2
20260506222232 72 100 0.0 2.0 0.00 0.00 0.00 34 1018.4
20260506221230 72 87 0.0 0.0 0.00 0.00 0.00 32 1018.2
20260506221131 72 80 0.0 0.0 0.00 0.00 0.00 32 1018.4
20260506220132 67 335 0.0 0.0 0.00 0.00 0.00 30 1018.3
20260506215130 68 263 0.0 0.0 0.00 0.00 0.00 30 1018.3
20260506214129 69 290 0.0 0.0 0.00 0.00 0.00 29 1018.7
20260506213229 70 347 0.0 0.0 0.00 0.00 0.00 30 1018.7
20260506212231 70 356 0.0 0.0 0.00 0.00 0.00 30 1018.6
20260506210232 70 318 0.0 0.0 0.00 0.00 0.00 30 1018.7
20260506210132 70 336 0.0 0.0 0.00 0.00 0.00 30 1018.7
20260506205130 69 189 0.0 0.0 0.00 0.00 0.00 30 1018.7
20260506204131 70 356 0.0 0.0 0.00 0.00 0.00 33 1019.2
20260506203129 69 2 0.0 0.0 0.00 0.00 0.00 32 1019.1
20260506202131 69 310 0.0 0.0 0.00 0.00 0.00 32 1018.9
20260506201031 70 337 0.0 0.0 0.00 0.00 0.00 33 1019.0
20260506200029 60 254 0.0 0.0 0.00 0.00 0.00 35 1019.1
20260506195929 58 263 0.0 0.0 0.00 0.00 0.00 34 1019.2
20260506193937 67 338 0.0 0.0 0.00 0.00 0.00 100 1019.3
20260506192948 67 132 0.0 0.0 0.00 0.00 0.00 100 1019.4
20260506192030 63 127 0.0 0.0 0.00 0.00 0.00 36 1019.4
20260506191029 65 99 0.0 0.0 0.00 0.00 0.00 35 1019.6
20260506190129 66 95 0.0 0.0 0.00 0.00 0.00 37 1019.6
20260506184134 64 112 2.0 22.0 0.00 0.00 0.00 45 1019.7
20260506183130 63 111 0.0 0.0 0.00 0.00 0.00 49 1020.0
20260506181130 57 83 0.0 0.0 0.00 0.00 0.00 47 1020.2
20260506180131 58 74 0.0 0.0 0.00 0.00 0.00 48 1020.2
20260506175132 58 112 0.0 0.0 0.00 0.00 0.00 49 1020.0
20260506174133 59 110 0.0 0.0 0.00 0.00 0.00 48 1020.2
20260506173131 60 71 0.0 0.0 0.00 0.00 0.00 49 1020.2
20260506172132 59 90 0.0 0.0 0.00 0.00 0.00 49 1020.4
20260506171133 58 113 0.0 0.0 0.00 0.00 0.00 49 1020.3
20260506170232 58 112 0.0 0.0 0.00 0.00 0.00 50 1020.3
20260506165331 56 110 0.0 0.0 0.00 0.00 0.00 50 1020.4
20260506164333 56 73 0.0 0.0 0.00 0.00 0.00 53 1020.4
20260506163432 55 112 0.0 0.0 0.00 0.00 0.00 55 1020.5
20260506162530 54 109 0.0 0.0 0.00 0.00 0.00 57 1020.6
20260506161537 53 123 0.0 0.0 0.00 0.00 0.00 56 1020.7
20260506160631 53 95 0.0 0.0 0.00 0.00 0.00 56 1020.6
20260506155630 52 79 0.0 0.0 0.00 0.00 0.00 61 1020.7
20260506154630 51 117 0.0 0.0 0.00 0.00 0.00 63 1020.6
20260506152632 50 109 0.0 0.0 0.00 0.00 0.00 62 1020.6
20260506151730 50 112 0.0 0.0 0.00 0.00 0.00 63 1020.7
20260506150732 49 151 0.0 0.0 0.00 0.00 0.00 65 1020.7
20260506145729 47 180 0.0 0.0 0.00 0.00 0.00 66 1020.7
20260506144730 46 202 0.0 0.0 0.00 0.00 0.00 69 1020.6
20260506143731 44 204 0.0 0.0 0.00 0.00 0.00 71 1020.6
20260506142732 43 180 0.0 0.0 0.00 0.00 0.00 72 1020.5
20260506141829 42 202 0.0 0.0 0.00 0.00 0.00 75 1020.5
20260506140929 41 206 0.0 0.0 0.00 0.00 0.00 76 1020.5
20260506135030 39 220 0.0 0.0 0.00 0.00 0.00 76 1020.5
20260506134031 40 180 0.0 0.0 0.00 0.00 0.00 76 1020.4
20260506133032 39 237 0.0 0.0 0.00 0.00 0.00 77 1020.3
20260506132029 39 265 0.0 0.0 0.00 0.00 0.00 77 1020.0
20260506131030 39 261 0.0 0.0 0.00 0.00 0.00 76 1019.9
20260506130031 38 269 0.0 0.0 0.00 0.00 0.00 77 1019.9
20260506123131 39 260 0.0 0.0 0.00 0.00 0.00 76 1019.8
20260506122132 38 270 0.0 0.0 0.00 0.00 0.00 76 1019.7
20260506121131 39 284 0.0 0.0 0.00 0.00 0.00 75 1019.6
20260506120230 39 265 0.0 0.0 0.00 0.00 0.00 75 1019.6
20260506114248 39 266 0.0 0.0 0.00 0.00 0.00 74 1019.6
20260506112230 39 261 0.0 0.0 0.00 0.00 0.00 75 1019.6
20260506111330 38 239 0.0 0.0 0.00 0.00 0.00 76 1019.5
20260506110429 39 247 0.0 0.0 0.00 0.00 0.00 75 1019.6
20260506105432 40 254 0.0 0.0 0.00 0.00 0.00 73 1019.5
20260506104445 40 240 0.0 0.0 0.00 0.00 0.00 72 1019.4
20260506103529 40 273 0.0 0.0 0.00 0.00 0.00 73 1019.3
20260506102532 40 260 0.0 0.0 0.00 0.00 0.00 73 1019.1
20260506101530 40 262 0.0 0.0 0.00 0.00 0.00 74 1019.2
20260506100530 40 263 0.0 0.0 0.00 0.00 0.00 74 1019.3
20260506095531 40 268 0.0 0.0 0.00 0.00 0.00 72 1019.2
20260506094532 41 273 0.0 0.0 0.00 0.00 0.00 72 1019.3
20260506093630 41 267 0.0 0.0 0.00 0.00 0.00 72 1019.3
20260506092631 41 262 0.0 0.0 0.00 0.00 0.00 71 1019.1
20260506091630 42 266 0.0 0.0 0.00 0.00 0.00 71 1019.1
20260506090630 42 262 0.0 0.0 0.00 0.00 0.00 70 1019.1
20260506085631 43 272 0.0 0.0 0.00 0.00 0.00 70 1019.1
20260506084730 43 263 0.0 0.0 0.00 0.00 0.00 70 1018.9
20260506084631 43 274 0.0 0.0 0.00 0.00 0.00 70 1018.9
20260506083730 43 263 0.0 0.0 0.00 0.00 0.00 70 1018.9
20260506082731 43 275 0.0 0.0 0.00 0.00 0.00 70 1018.8
20260506081730 43 267 0.0 0.0 0.00 0.00 0.00 69 1018.8
20260506072731 45 273 0.0 0.0 0.00 0.00 0.00 68 1018.6
20260506070830 42 263 0.0 0.0 0.00 0.00 0.00 75 1018.4
20260506060821 43 225 0.0 0.0 0.00 0.00 0.00 78 1018.0
20260506051021 44 202 0.0 0.0 0.00 0.00 0.00 76 1018.1
20260506045119 54 180 0.0 0.0 0.00 0.00 0.00 99 1017.9
20260506044118 55 180 0.0 0.0 0.00 0.00 0.00 100 1018.0